Location: Chandrammap?lem
(16.9200°N, 81.0051°E)
Time: 19:47:09
(UTC+00:00)

SL-08 RB Rocket - Pass Details

Date: 29 May 2024
Orbit: 638 x 677 km, 97.8° (Epoch: 14 June)

Event Time Altitude Azimuth Distance (km) Brightness Sun altitude
Rises 23:22:54 0° 16° (NNE) 2,933 7.7 -9.3°
Reaches altitude 10° 23:25:07 10° 20° (NNE) 2,023 6.9 -8.8°
Maximum altitude 23:29:28 62° 101° (E) 719 4.2 -7.9°
Drops below altitude 10° 23:33:50 10° 182° (S) 2,027 5.9 -6.9°
Sets 23:36:04 0° 185° (S) 2,938 6.7 -6.5°
